When you browse on this site, cookies collect data to enhance your experience and personalize the content and advertising you see.
Visit our Privacy Policy to learn more. By continuing to use the site, you agree to this use of cookies and data.
  • In France
  • List of Countries
  • For 7 days
  • Water Temperature
  • Satellite Maps
  • Weather Map
  • Weather Widgets
  • user-avatar
    Login

    Hourly Weather Oran

    Today, 23 January, Wednesday

    Time Temperature Precipitation Wind Pressure Humidity
    00:00 +9°C° 0 mm 13 mps 749 mmHg 78%
    01:00 +10°C° 0.8 mm 13 mps 749 mmHg 77%
    02:00 +10°C° 0.8 mm 13 mps 748 mmHg 77%
    03:00 +10°C° 0.8 mm 13 mps 748 mmHg 77%
    04:00 +10°C° 1.1 mm 13 mps 748 mmHg 77%
    05:00 +10°C° 1.1 mm 13 mps 748 mmHg 77%
    06:00 +12°C° 1.1 mm 12 mps 747 mmHg 77%
    07:00 +12°C° 0.5 mm 12 mps 748 mmHg 76%
    08:00 +12°C° 0.5 mm 11 mps 748 mmHg 75%
    09:00 +12°C° 0.5 mm 11 mps 748 mmHg 74%
    10:00 +13°C° 0 mm 12 mps 747 mmHg 72%
    11:00 +13°C° 0 mm 13 mps 747 mmHg 69%
    12:00 +14°C° 0 mm 14 mps 747 mmHg 67%
    13:00 +13°C° 0 mm 14 mps 747 mmHg 68%
    14:00 +13°C° 0 mm 14 mps 747 mmHg 70%
    15:00 +13°C° 0 mm 14 mps 747 mmHg 71%
    16:00 +13°C° 0 mm 14 mps 747 mmHg 72%
    17:00 +13°C° 0 mm 13 mps 747 mmHg 73%
    18:00 +12°C° 0 mm 12 mps 747 mmHg 74%
    19:00 +12°C° 0 mm 12 mps 747 mmHg 75%
    20:00 +12°C° 0 mm 12 mps 747 mmHg 76%
    21:00 +12°C° 0 mm 12 mps 747 mmHg 77%
    22:00 +12°C° 0 mm 12 mps 747 mmHg 78%
    23:00 +12°C° 0 mm 12 mps 747 mmHg 79%

    Tomorrow, 24 January, Thursday

    Time Temperature Precipitation Wind Pressure Humidity
    00:00 +12°C° 0 mm 12 mps 747 mmHg 80%
    01:00 +12°C° 0 mm 12 mps 747 mmHg 80%
    02:00 +12°C° 0 mm 11 mps 747 mmHg 81%
    03:00 +12°C° 0 mm 11 mps 747 mmHg 81%
    04:00 +12°C° 0.1 mm 11 mps 747 mmHg 82%
    05:00 +12°C° 0.1 mm 10 mps 747 mmHg 82%
    06:00 +12°C° 0.1 mm 10 mps 747 mmHg 83%
    07:00 +12°C° 0.2 mm 10 mps 747 mmHg 81%
    08:00 +13°C° 0.2 mm 10 mps 747 mmHg 79%
    09:00 +13°C° 0.2 mm 10 mps 748 mmHg 77%
    10:00 +14°C° 0.2 mm 10 mps 748 mmHg 74%
    11:00 +14°C° 0.2 mm 10 mps 748 mmHg 71%
    12:00 +16°C° 0.2 mm 10 mps 748 mmHg 68%
    13:00 +16°C° 0.1 mm 9 mps 748 mmHg 67%
    14:00 +16°C° 0.1 mm 9 mps 747 mmHg 66%
    15:00 +16°C° 0.1 mm 8 mps 747 mmHg 65%
    16:00 +15°C° 0.1 mm 8 mps 747 mmHg 71%
    17:00 +14°C° 0.1 mm 7 mps 748 mmHg 76%
    18:00 +13°C° 0.1 mm 6 mps 748 mmHg 82%
    19:00 +13°C° 0.3 mm 6 mps 748 mmHg 82%
    20:00 +13°C° 0.3 mm 6 mps 749 mmHg 83%
    21:00 +13°C° 0.3 mm 5 mps 749 mmHg 84%
    22:00 +13°C° 0.3 mm 6 mps 749 mmHg 82%
    23:00 +13°C° 0.3 mm 6 mps 749 mmHg 81%

    Day after tomorrow, 25 January, Friday

    Time Temperature Precipitation Wind Pressure Humidity
    00:00 +13°C° 0.3 mm 6 mps 749 mmHg 80%
    01:00 +13°C° 0 mm 6 mps 750 mmHg 79%
    02:00 +13°C° 0 mm 6 mps 750 mmHg 78%
    03:00 +13°C° 0 mm 6 mps 750 mmHg 77%
    04:00 +13°C° 0 mm 5 mps 750 mmHg 79%
    05:00 +12°C° 0 mm 4 mps 750 mmHg 80%
    06:00 +12°C° 0 mm 4 mps 750 mmHg 81%
    07:00 +13°C° 0 mm 3 mps 751 mmHg 76%
    08:00 +14°C° 0 mm 3 mps 751 mmHg 72%
    09:00 +14°C° 0 mm 3 mps 752 mmHg 67%
    10:00 +15°C° 0 mm 4 mps 752 mmHg 63%
    11:00 +16°C° 0 mm 5 mps 753 mmHg 58%
    12:00 +16°C° 0 mm 6 mps 753 mmHg 54%
    13:00 +16°C° 0 mm 5 mps 753 mmHg 52%
    14:00 +17°C° 0 mm 4 mps 752 mmHg 51%
    15:00 +17°C° 0 mm 4 mps 752 mmHg 49%
    16:00 +16°C° 0 mm 3 mps 752 mmHg 53%
    17:00 +14°C° 0 mm 3 mps 752 mmHg 57%
    18:00 +13°C° 0 mm 3 mps 752 mmHg 61%
    19:00 +13°C° 0 mm 3 mps 752 mmHg 60%
    20:00 +13°C° 0 mm 3 mps 753 mmHg 60%
    21:00 +13°C° 0 mm 4 mps 753 mmHg 60%
    22:00 +12°C° 0 mm 4 mps 753 mmHg 59%
    23:00 +12°C° 0 mm 4 mps 753 mmHg 59%

    26 January, Saturday

    Time Temperature Precipitation Wind Pressure Humidity
    00:00 +12°C° 0 mm 4 mps 753 mmHg 59%
    01:00 +12°C° 0 mm 3 mps 753 mmHg 61%
    02:00 +12°C° 0 mm 3 mps 753 mmHg 63%
    03:00 +11°C° 0 mm 3 mps 753 mmHg 65%
    04:00 +11°C° 0 mm 3 mps 753 mmHg 69%
    05:00 +12°C° 0 mm 2 mps 753 mmHg 72%
    06:00 +12°C° 0 mm 2 mps 753 mmHg 76%
    07:00 +13°C° 0 mm 2 mps 754 mmHg 72%
    08:00 +14°C° 0 mm 1 mps 754 mmHg 68%
    09:00 +15°C° 0 mm 1 mps 755 mmHg 65%
    10:00 +16°C° 0 mm 1 mps 755 mmHg 61%
    11:00 +18°C° 0 mm 1 mps 755 mmHg 57%
    12:00 +17°C° 0 mm 2 mps 755 mmHg 53%
    13:00 +17°C° 0 mm 2 mps 755 mmHg 51%
    14:00 +18°C° 0 mm 2 mps 754 mmHg 49%
    15:00 +18°C° 0 mm 2 mps 754 mmHg 48%
    16:00 +16°C° 0 mm 1 mps 753 mmHg 54%
    17:00 +15°C° 0 mm 1 mps 753 mmHg 61%
    18:00 +12°C° 0 mm 0 mps 753 mmHg 67%
    19:00 +13°C° 0 mm 1 mps 754 mmHg 67%
    20:00 +13°C° 0 mm 1 mps 754 mmHg 67%
    21:00 +13°C° 0 mm 1 mps 754 mmHg 67%
    22:00 +13°C° 0 mm 1 mps 754 mmHg 66%
    23:00 +13°C° 0 mm 2 mps 753 mmHg 64%

    27 January, Sunday

    Time Temperature Precipitation Wind Pressure Humidity
    00:00 +13°C° 0 mm 2 mps 753 mmHg 62%
    01:00 +13°C° 0 mm 2 mps 753 mmHg 60%
    02:00 +12°C° 0 mm 2 mps 752 mmHg 58%
    03:00 +12°C° 0 mm 2 mps 752 mmHg 55%
    04:00 +11°C° 0 mm 3 mps 752 mmHg 56%
    05:00 +11°C° 0 mm 3 mps 751 mmHg 57%
    06:00 +11°C° 0 mm 3 mps 751 mmHg 58%
    07:00 +12°C° 0 mm 3 mps 751 mmHg 58%
    08:00 +13°C° 0 mm 4 mps 751 mmHg 58%
    09:00 +14°C° 0 mm 4 mps 751 mmHg 58%
    10:00 +16°C° 0 mm 5 mps 751 mmHg 54%
    11:00 +17°C° 0 mm 7 mps 751 mmHg 49%
    12:00 +18°C° 0 mm 8 mps 751 mmHg 44%
    13:00 +18°C° 0 mm 9 mps 750 mmHg 47%
    14:00 +17°C° 0 mm 10 mps 749 mmHg 50%
    15:00 +17°C° 0 mm 10 mps 749 mmHg 53%
    16:00 +16°C° 0 mm 9 mps 749 mmHg 60%
    17:00 +15°C° 0 mm 8 mps 749 mmHg 68%
    18:00 +14°C° 0 mm 6 mps 749 mmHg 76%
    19:00 +13°C° 0 mm 5 mps 749 mmHg 80%
    20:00 +13°C° 0 mm 5 mps 750 mmHg 83%
    21:00 +13°C° 0 mm 4 mps 750 mmHg 86%
    22:00 +13°C° 0.1 mm 3 mps 750 mmHg 86%
    23:00 +13°C° 0.1 mm 3 mps 751 mmHg 86%

    28 January, Monday

    Time Temperature Precipitation Wind Pressure Humidity
    00:00 +12°C° 0.1 mm 3 mps 751 mmHg 86%
    01:00 +12°C° 0.1 mm 4 mps 751 mmHg 81%
    02:00 +12°C° 0.1 mm 5 mps 751 mmHg 76%
    03:00 +11°C° 0.1 mm 6 mps 751 mmHg 70%
    04:00 +10°C° 0 mm 6 mps 751 mmHg 66%
    05:00 +10°C° 0 mm 6 mps 751 mmHg 62%
    06:00 +9°C° 0 mm 6 mps 751 mmHg 58%
    07:00 +10°C° 0 mm 5 mps 752 mmHg 57%
    08:00 +10°C° 0 mm 5 mps 752 mmHg 55%
    09:00 +10°C° 0 mm 5 mps 753 mmHg 54%
    10:00 +10°C° 0 mm 5 mps 753 mmHg 51%
    11:00 +11°C° 0 mm 4 mps 753 mmHg 49%
    12:00 +11°C° 0 mm 4 mps 753 mmHg 47%
    13:00 +12°C° 0 mm 4 mps 753 mmHg 45%
    14:00 +12°C° 0 mm 3 mps 753 mmHg 42%
    15:00 +12°C° 0 mm 3 mps 752 mmHg 40%
    16:00 +12°C° 0 mm 3 mps 753 mmHg 42%
    17:00 +11°C° 0 mm 3 mps 753 mmHg 45%
    18:00 +11°C° 0 mm 3 mps 753 mmHg 47%
    19:00 +10°C° 0 mm 3 mps 754 mmHg 49%
    20:00 +10°C° 0 mm 3 mps 754 mmHg 50%
    21:00 +10°C° 0 mm 4 mps 755 mmHg 52%
    22:00 +10°C° 0 mm 4 mps 755 mmHg 55%
    23:00 +8°C° 0 mm 4 mps 755 mmHg 57%
    Show more